カタログに戻る

STARLINK-32084

運用中通信VLEO
NORAD 60347·PAYLOAD·🇺🇸 United States

打ち上げ Aug 2, 2024 から Cape Canaveral Space Force Station

Loading…

次のパス (今後24時間)

TLE

最新Source: CelesTrak SupGP

元期: Sep 15, 2026, 03:14 UTC

1 60347C 24136U   26258.13520833 -.00015194  00000+0 -48849-3 0  2589
2 60347  53.1589 274.3379 0001335  87.6205 100.0208 15.31716265    17

AllMySatでSTARLINK-32084をリアルタイム追跡

Download on the App Store